DW5595 Weather Reports


time (UTC)temp
C
wind
direction
speed
KPH
gust
KPH
rain 1hr
cm
rain 24hr
cm
rain mn
cm
humidity
%
barometer
mb
20260903160016 32 142 0.0 3.2 0.00 0.00 0.00 64 1019.3
20260903154513 32 20 4.8 6.4 0.00 0.00 0.00 67 1019.4
20260903153031 31 171 1.6 3.2 0.00 0.00 0.00 72 1019.4
20260903151543 30 330 0.0 3.2 0.00 0.00 0.00 73 1019.5
20260903150041 29 11 1.6 4.8 0.00 0.00 0.00 76 1019.5
20260903143023 28 348 1.6 4.8 0.00 0.00 0.00 78 1019.4
20260903141522 27 352 1.6 6.4 0.00 0.00 0.00 80 1019.4
20260903140011 26 352 0.0 0.0 0.00 0.00 0.00 83 1019.3
20260903134540 25 22 1.6 4.8 0.00 0.00 0.00 87 1019.2
20260903133031 24 42 0.0 6.4 0.00 0.00 0.00 90 1019.2
20260903131533 23 19 1.6 4.8 0.00 0.00 0.00 93 1019.3
20260903130030 23 128 0.0 0.0 0.00 0.00 0.00 95 1019.4
20260903124523 22 119 0.0 0.0 0.00 0.00 0.00 97 1019.5
20260903123030 22 119 0.0 0.0 0.00 0.00 0.00 97 1019.4
20260903121511 21 62 0.0 0.0 0.00 0.00 0.00 97 1019.5
20260903120017 21 170 0.0 0.0 0.00 0.00 0.00 97 1019.4
20260903114558 20 158 0.0 0.0 0.00 0.00 0.00 96 1019.2
20260903113031 20 158 0.0 0.0 0.00 0.00 0.00 96 1018.8
20260903111528 20 158 0.0 0.0 0.00 0.00 0.00 96 1018.6
20260903110025 20 158 0.0 0.0 0.00 0.00 0.00 96 1018.6
20260903104523 20 158 0.0 0.0 0.00 0.00 0.00 96 1018.5
20260903103020 20 158 0.0 0.0 0.00 0.00 0.00 96 1018.4
20260903101516 20 158 0.0 0.0 0.00 0.00 0.00 96 1018.4
20260903100035 20 158 0.0 0.0 0.00 0.00 0.00 96 1018.3
20260903094539 21 158 0.0 0.0 0.00 0.00 0.00 96 1018.1
20260903093050 21 158 0.0 0.0 0.00 0.00 0.00 96 1018.1
20260903091527 21 158 0.0 0.0 0.00 0.00 0.00 96 1018.0
20260903090028 21 158 0.0 0.0 0.00 0.00 0.00 95 1017.9
20260903084529 21 158 0.0 0.0 0.00 0.00 0.00 95 1018.0
20260903083032 21 158 0.0 0.0 0.00 0.00 0.00 96 1017.9
20260903081539 21 158 0.0 0.0 0.00 0.00 0.00 95 1017.9
20260903080035 21 158 0.0 0.0 0.00 0.00 0.00 95 1018.0
20260903074530 21 158 0.0 0.0 0.00 0.00 0.00 95 1017.9
20260903073029 21 158 0.0 0.0 0.00 0.00 0.00 95 1017.9
20260903071527 21 158 0.0 0.0 0.00 0.00 0.00 95 1017.7
20260903070028 21 158 0.0 0.0 0.00 0.00 0.00 95 1017.9
20260903064519 21 158 0.0 0.0 0.00 0.00 0.00 95 1017.6
20260903063015 21 158 0.0 0.0 0.00 0.00 0.00 95 1017.7
20260903061512 22 158 0.0 0.0 0.00 0.00 0.00 95 1017.6
20260903054536 22 158 0.0 0.0 0.00 0.00 0.00 95 1017.9
20260903053027 22 158 0.0 0.0 0.00 0.00 0.00 95 1018.0
20260903051527 22 158 0.0 0.0 0.00 0.00 0.00 95 1018.0
20260903050019 22 158 0.0 0.0 0.00 0.00 0.00 95 1018.0
20260903044514 22 165 0.0 0.0 0.00 0.00 0.00 95 1018.2
20260903043031 22 165 0.0 0.0 0.00 0.00 0.00 94 1018.4
20260903041532 22 206 0.0 0.0 0.00 0.00 0.00 94 1018.4
20260903040033 22 313 0.0 0.0 0.00 0.00 0.00 94 1018.4
20260903034533 23 313 0.0 0.0 0.00 0.00 0.00 94 1018.5
20260903033033 23 313 0.0 0.0 0.00 0.00 0.00 94 1018.6
20260903031526 23 313 0.0 0.0 0.00 0.00 0.00 93 1018.8
20260903030017 23 313 0.0 0.0 0.00 0.00 0.00 93 1018.9
20260903024539 23 313 0.0 0.0 0.00 0.00 0.00 92 1019.1
20260903021536 24 313 0.0 0.0 0.00 0.00 0.00 91 1019.1
20260903020028 24 313 0.0 0.0 0.00 0.00 0.00 91 1018.9
20260903014542 24 313 0.0 0.0 0.00 0.00 0.00 91 1018.7
20260903013023 25 313 0.0 0.0 0.00 0.00 0.00 90 1018.5
20260903011534 25 313 0.0 0.0 0.00 0.00 0.00 88 1018.3
20260903010037 25 313 0.0 0.0 0.00 0.00 0.00 88 1018.2
20260903004537 26 313 0.0 0.0 0.00 0.00 0.00 86 1018.0
20260903001533 27 313 0.0 0.0 0.00 0.00 0.00 82 1017.9
20260903000033 28 313 0.0 0.0 0.00 0.00 0.00 81 1017.6
20260902234527 28 313 0.0 0.0 0.00 0.00 0.00 76 1017.5
20260902233020 30 313 0.0 0.0 0.00 0.00 0.00 75 1017.6
20260902231538 30 313 0.0 0.0 0.00 0.00 0.00 70 1017.7
20260902230032 30 313 0.0 0.0 0.00 0.00 0.00 66 1017.6
20260902224534 31 313 0.0 0.0 0.00 0.00 0.00 63 1017.6
20260902223005 31 313 0.0 0.0 0.00 0.00 0.00 61 1017.6
20260902221505 32 313 0.0 3.2 0.00 0.00 0.00 61 1017.6
20260902220005 32 313 0.0 1.6 0.00 0.00 0.00 58 1017.8
20260902214504 33 11 0.0 1.6 0.00 0.00 0.00 58 1017.8
20260902213007 33 325 0.0 3.2 0.00 0.00 0.00 52 1017.8
20260902211504 33 5 1.6 6.4 0.00 0.00 0.00 53 1017.9
20260902210005 33 34 1.6 4.8 0.00 0.00 0.00 55 1018.1
20260902204507 33 346 4.8 8.0 0.00 0.00 0.00 52 1018.1
20260902203007 33 137 4.8 6.4 0.00 0.00 0.00 53 1018.0
20260902201504 33 194 0.0 3.2 0.00 0.00 0.00 51 1018.0
20260902200013 33 261 1.6 8.0 0.00 0.00 0.00 51 1018.3
20260902194508 33 312 1.6 11.3 0.00 0.00 0.00 53 1018.4
20260902193008 33 268 0.0 12.9 0.00 0.00 0.00 52 1018.5
20260902191510 33 152 0.0 4.8 0.00 0.00 0.00 49 1018.7
20260902190009 33 311 3.2 8.0 0.00 0.00 0.00 50 1018.8
20260902184518 33 276 1.6 3.2 0.00 0.00 0.00 55 1018.9
20260902183010 33 272 0.0 9.7 0.00 0.00 0.00 54 1019.1
20260902181508 33 5 0.0 9.7 0.00 0.00 0.00 54 1019.3
20260902180008 33 317 3.2 8.0 0.00 0.00 0.00 55 1019.3
20260902174513 33 228 0.0 4.8 0.00 0.00 0.00 55 1019.4
20260902173009 33 169 0.0 8.0 0.00 0.00 0.00 56 1019.6
20260902171509 32 309 1.6 9.7 0.00 0.00 0.00 56 1019.8
20260902170010 32 312 1.6 9.7 0.00 0.00 0.00 56 1020.0
20260902164516 32 329 3.2 8.0 0.00 0.00 0.00 56 1020.1
20260902163012 32 344 0.0 3.2 0.00 0.00 0.00 59 1020.2
20260902161518 32 352 0.0 3.2 0.00 0.00 0.00 59 1020.3